Regional Weather Roundup
Issued by NWS

Home | Current Version | Previous Version | Graphics & Text | Print | Product List | Glossary On
Versions: 1 2 3 4 5 6 7 8 9 10 11 12 13 14 15 16 17 18 19 20 21 22 23 24 25 26 27 28 29 30 31 32 33 34 35 36 37 38 39 40 41 42 43 44 45 46 47 48 49 50
000
ASUS43 KMKX 282021
RWRWI

WISCONSIN REGIONAL WEATHER ROUNDUP
NATIONAL WEATHER SERVICE MILWAUKEE/SULLIVAN WI
300 PM CDT TUE JUL 28 2015

NOTE: "FAIR" INDICATES FEW OR NO CLOUDS BELOW 12,000 FEET WITH NO
SIGNIFICANT WEATHER AND/OR OBSTRUCTIONS TO VISIBILITY.

WIZ001-002-006>008-014>016-023>028-282100-
NORTHWEST WISCONSIN

CITY           SKY/WX    TMP DP  RH WIND       PRES   REMARKS
SUPERIOR ARPT  PTSUNNY   85  69  58 SW18G26   29.77R HX  88
ASHLAND        PTSUNNY   86  70  58 S13G23    29.80S HX  90
HAYWARD        PTSUNNY   82  67  60 S16       29.84S HX  84
SIREN          CLOUDY    83  69  63 SW9G16    29.82S HX  86
CUMBERLAND     PTSUNNY   79  68  69 S13G21    29.85R HX  81
RICE LAKE      PTSUNNY   80  70  70 S9G17     29.86S HX  84
CHETEK         PTSUNNY  N/A N/A N/A S10       29.85S
LADYSMITH      CLOUDY    82  69  66 S12G20    29.88F HX  85
EAU CLAIRE     PTSUNNY   82  70  66 S8        29.83F HX  86
MENOMONIE      CLOUDY    84  72  68 S8        29.84S HX  89
NEW RICHMOND   CLOUDY    83  70  64 SW13G18   29.83F HX  86
OSCEOLA        PTSUNNY   83  71  67 S10       29.85S HX  88
$$

WIZ003>005-009-010-017-018-282100-
NORTH CENTRAL WISCONSIN

CITY           SKY/WX    TMP DP  RH WIND       PRES   REMARKS
MANITOWISH WTR PTSUNNY   78  67  68 S13G20    29.90S HX  80
ARBOR VITAE    PTSUNNY   80  67  64 S10G16    29.91S HX  82
WOODRUFF       PTSUNNY   80  67  64 S10G16    29.91S HX  82
RHINELANDER    PTSUNNY   81  65  58 S13G20    29.93S HX  83
EAGLE RIVER    CLOUDY    78  63  58 S13G20    29.92S HX  80
LAND O LAKES   CLOUDY    80  64  57 S10G17    29.93S HX  82
PHILLIPS       CLOUDY    82  68  62 S12G21    29.88S HX  85
TOMAHAWK       PTSUNNY   80  67  66 S6        29.92S HX  82
MEDFORD        CLOUDY    78  69  74 S9G18     29.92R HX  80
MERRILL        NOT AVBL
$$

WIZ029-030-035-036-043>047-282100-
CENTRAL WISCONSIN

CITY           SKY/WX    TMP DP  RH WIND       PRES   REMARKS
WAUSAU         CLOUDY    83  66  56 S14       29.90R HX  85
MOSINEE        MOSUNNY   81  68  65 S10       29.92R HX  83
MARSHFIELD     CLOUDY    79  67  66 S12       29.92R HX  81
STEVENS POINT  CLOUDY    80  66  62 S13       29.91R HX  83
WAUPACA        CLOUDY    85  67  53 SE7       29.89S HX  88
WAUTOMA        CLOUDY    84  69  60 SE15      29.87F HX  87
WISC RAPIDS    CLOUDY    82  68  62 SW6       29.91R HX  85
CAMP DOUGLAS   CLOUDY    79  79 100 VRB6      29.89R HX  83
$$

WIZ011>013-019>022-031-037>040-048>050-282100-
NORTHEAST WISCONSIN

CITY           SKY/WX    TMP DP  RH WIND       PRES   REMARKS
ANTIGO         PTSUNNY   80  66  60 S12G22    29.94S HX  82
SHAWANO        CLOUDY    85  64  49 S7        29.91S HX  87
OCONTO         CLOUDY    87  67  51 SE10      29.90F HX  89
STURGEON BAY   CLOUDY    82  61  47 S14G24    29.96S HX  83
GREEN BAY      CLOUDY    86  62  44 SE16      29.90F HX  86
MANITOWOC      LGT RAIN  79  67  66 MISG      29.94F HX  81
APPLETON       PTSUNNY   84  57  39 SE18      29.90F HX  83
CLINTONVILLE   CLOUDY    82  63  51 SE6       29.89S HX  83
OSHKOSH        CLOUDY    85  64  49 S12G23    29.88F HX  86
$$

WIZ032>034-041-042-053>061-282100-
SOUTHWEST WISCONSIN

CITY           SKY/WX    TMP DP  RH WIND       PRES   REMARKS
LA CROSSE      PTSUNNY   82  72  71 S10       29.83S HX  87
SPARTA         CLOUDY    81  69  68 S7        29.87F HX  84
VIROQUA        PTSUNNY   79  71  76 SE7       29.88F HX  82
BOSCOBEL       CLOUDY    80  73  79 SE5       29.86R HX  84
PRAIRIE DU CHI CLOUDY    78  69  74 CALM      29.86R HX  80
PLATTEVILLE    CLOUDY    77  74  91 S10       29.87R
$$

WIZ056-057-062-063-064-067-068-282100-
SOUTH CENTRAL WISCONSIN

CITY           SKY/WX    TMP DP  RH WIND       PRES   REMARKS
REEDSBURG      CLOUDY    80  74  79 SE3       29.87S HX  85
BARABOO/DELLS  CLOUDY    81  70  68 SE9       29.87F HX  85
LONE ROCK      CLOUDY    81  73  76 S6        29.87F HX  86
MINERAL POINT  CLOUDY    79  73  83 S5        29.89S HX  82
MADISON        CLOUDY    83  70  64 S16       29.87F HX  87
MIDDLETON      CLOUDY    82  70  66 S7        29.88F HX  86
WATERTOWN      CLOUDY    83  73  70 S10       29.87F HX  89
MONROE         CLOUDY    79  72  78 S16       29.86F HX  82
JANESVILLE     PTSUNNY   86  72  62 SE16      29.87F HX  92
$$

WIZ051-052-058>065-066-070>072-282100-
SOUTHEAST WISCONSIN

CITY           SKY/WX    TMP DP  RH WIND       PRES   REMARKS
MILWAUKEE      PTSUNNY   83  66  56 SE15      29.93F HX  85
WAUKESHA       MOSUNNY   84  66  54 S10G17    29.94F HX  86
MILWAUKEE/TIMM MOSUNNY   84  61  45 E12       29.94F HX  84
RACINE         MOSUNNY   83  65  54 SE14      29.96F HX  85
BURLINGTON     PTSUNNY   86  69  56 S5        29.92F HX  89
KENOSHA        MOSUNNY   85  69  58 SE13      29.95F HX  89
FOND DU LAC    CLOUDY    86  66  51 S10G20    29.89F HX  88
SHEBOYGAN      MOSUNNY   83  66  56 SE13      29.93F HX  85
WEST BEND      PTSUNNY   82  63  51 SE10      29.91F HX  83
JUNEAU         CLOUDY    83  70  65 SE15      29.89F HX  86
$$

LSZ147-162-282100-
LAKE SUPERIOR

STATION/POSITION TIME  TEMP    WIND        PRES    WAVE
                       AIR SEA DIR/SP/G            HT/PER
                 (UTC) (F)     (DEG/KT/KT) (MB)    (FT/S)
W MID LAKE BUOY  1950   67 62  140/ 10/ 12 1009.4R   1/ 3
DEVILS ISLAND    2000   81     210/ 10/ 13 1008.1R
SAXON HARBOR     1900   83                 1008.8
$$

LMZ867-665-643>646-282100-
LAKE MICHIGAN

STATION/POSITION TIME  TEMP    WIND        PRES    WAVE
                       AIR SEA DIR/SP/G            HT/PER
                 (UTC) (F)     (DEG/KT/KT) (MB)    (FT/S)
CHAMBERS ISLAND  1900   82     140/  4/ 11 1013.2F
S GREEN BAY BUOY 2000   81 76  150/ 12/ 16 1014.3F
N MID LAKE BUOY  1950   72 71  180/  8/  8 1014.4F   1
NORTHPORT PIER   1900   75     140/  9/ 11 1014.2F
SISTER BAY       1914   83     170/ 13/ 17   N/A
ALGOMA LAKESHORE 1927          200/  8/  9   N/A
KEWAUNEE LAKESHO 1900   67     170/  9/  9 1013.8F
SHEBOYGAN LAKESH 2000   71     160/ 12/ 12 1013.8F
PORT WASHINGTON  2000   76     170/  5/ 13 1013.9
ATWATER BUOY     2000   73     140/ 16/ 17 1014.9F
MILWAUKEE LAKESH 2000   72     130/ 16/ 17   N/A
KENOSHA   LAKESH 2000   76     150/  8/  9 1013.5F
$$

TC  - TEMPERATURE IN CELSIUS
VSB - VISIBILITY IN STATUTE MILES
WCI - WIND CHILL INDEX
HX  - HEAT INDEX




USA.gov is the U.S. government's official web portal to all federal, state and local government web resources and services.